TimeCST,TemperatureF,Dew PointF,Humidity,Sea Level PressureIn,VisibilityMPH,Wind Direction,Wind SpeedMPH,Gust SpeedMPH,PrecipitationIn,Events,Conditions,WindDirDegrees,DateUTC
12:53 AM,52.0,46.9,83,30.17,10.0,Calm,Calm,-,N/A,,Overcast,0,2013-12-01 06:53:00
1:53 AM,51.1,46.9,86,30.16,10.0,Calm,Calm,-,N/A,,Overcast,0,2013-12-01 07:53:00
2:53 AM,51.1,46.9,86,30.15,10.0,Calm,Calm,-,N/A,,Overcast,0,2013-12-01 08:53:00
3:53 AM,51.1,48.0,89,30.14,10.0,Calm,Calm,-,N/A,,Overcast,0,2013-12-01 09:53:00
4:15 AM,51.1,48.0,89,30.15,10.0,Calm,Calm,-,N/A,,Overcast,0,2013-12-01 10:15:00
4:53 AM,52.0,48.0,86,30.13,10.0,Calm,Calm,-,N/A,,Overcast,0,2013-12-01 10:53:00
5:53 AM,51.1,46.9,86,30.12,10.0,Calm,Calm,-,N/A,,Overcast,0,2013-12-01 11:53:00
6:53 AM,52.0,46.9,83,30.13,10.0,East,3.5,-,N/A,,Overcast,80,2013-12-01 12:53:00
7:53 AM,52.0,48.0,86,30.13,10.0,Calm,Calm,-,N/A,,Overcast,0,2013-12-01 13:53:00
8:53 AM,54.0,48.0,80,30.13,10.0,Calm,Calm,-,N/A,,Overcast,0,2013-12-01 14:53:00
9:53 AM,55.9,48.9,77,30.13,10.0,SW,4.6,-,N/A,,Overcast,220,2013-12-01 15:53:00
10:53 AM,57.9,50.0,75,30.11,10.0,Calm,Calm,-,N/A,,Overcast,0,2013-12-01 16:53:00
11:53 AM,59.0,51.1,75,30.07,10.0,West,3.5,-,N/A,,Overcast,270,2013-12-01 17:53:00
12:49 PM,60.8,51.8,72,30.04,10.0,Calm,Calm,-,N/A,,Overcast,0,2013-12-01 18:49:00
12:53 PM,60.1,52.0,75,30.03,10.0,Calm,Calm,-,N/A,,Overcast,0,2013-12-01 18:53:00
1:08 PM,61.0,53.1,75,30.02,10.0,Calm,Calm,-,N/A,,Overcast,0,2013-12-01 19:08:00
1:53 PM,61.0,53.1,75,29.99,10.0,Calm,Calm,-,N/A,,Overcast,0,2013-12-01 19:53:00
2:53 PM,62.1,54.0,75,29.97,10.0,Calm,Calm,-,N/A,,Overcast,0,2013-12-01 20:53:00
3:53 PM,62.1,54.0,75,29.96,10.0,ESE,3.5,-,N/A,,Overcast,110,2013-12-01 21:53:00
4:06 PM,62.1,54.0,75,29.96,10.0,Calm,Calm,-,N/A,,Overcast,0,2013-12-01 22:06:00
4:53 PM,61.0,54.0,78,29.95,8.0,ENE,4.6,-,N/A,,Overcast,60,2013-12-01 22:53:00
5:18 PM,59.0,54.0,83,29.95,9.0,ENE,4.6,-,N/A,,Overcast,60,2013-12-01 23:18:00
5:32 PM,59.0,54.0,83,29.94,10.0,ENE,4.6,-,N/A,,Overcast,70,2013-12-01 23:32:00
5:53 PM,59.0,54.0,83,29.94,10.0,ENE,4.6,-,N/A,,Overcast,60,2013-12-01 23:53:00
6:53 PM,55.9,53.1,90,29.93,8.0,Calm,Calm,-,N/A,,Partly Cloudy,0,2013-12-02 00:53:00
7:24 PM,54.0,52.0,93,29.93,7.0,Calm,Calm,-,N/A,,Overcast,0,2013-12-02 01:24:00
7:53 PM,55.9,53.1,90,29.92,8.0,East,3.5,-,N/A,,Overcast,90,2013-12-02 01:53:00
8:01 PM,55.9,53.1,90,29.93,8.0,East,3.5,-,N/A,,Overcast,100,2013-12-02 02:01:00
8:09 PM,55.9,53.1,90,29.92,10.0,East,3.5,-,N/A,,Overcast,100,2013-12-02 02:09:00
8:25 PM,55.0,53.1,93,29.92,8.0,Calm,Calm,-,N/A,,Overcast,0,2013-12-02 02:25:00
8:35 PM,55.0,53.1,93,29.92,8.0,NE,3.5,-,N/A,,Overcast,50,2013-12-02 02:35:00
8:53 PM,55.0,53.1,93,29.91,8.0,Calm,Calm,-,N/A,,Overcast,0,2013-12-02 02:53:00
9:11 PM,55.9,53.1,90,29.92,8.0,Calm,Calm,-,N/A,,Overcast,0,2013-12-02 03:11:00
9:53 PM,54.0,53.1,97,29.91,7.0,Calm,Calm,-,N/A,,Overcast,0,2013-12-02 03:53:00
10:19 PM,55.0,53.1,93,29.90,7.0,Calm,Calm,-,N/A,,Overcast,0,2013-12-02 04:19:00
10:32 PM,54.0,52.0,93,29.90,7.0,North,3.5,-,N/A,,Overcast,360,2013-12-02 04:32:00
10:53 PM,54.0,53.1,97,29.89,7.0,Calm,Calm,-,N/A,,Overcast,0,2013-12-02 04:53:00
11:53 PM,55.0,54.0,96,29.87,6.0,Calm,Calm,-,N/A,,Overcast,0,2013-12-02 05:53:00